User: anonymous   Login
Location: Lawrence Hall of Science
(37.8785°N, 122.2415°W)
Time: 04:58:36
(UTC-07:00)
Language:

Cosmos 1461 - Orbit

View from above orbital plane
View from above orbital plane
View from above satellite
View from above satellite

Ground track
Ground track

The orbit data is extracted from the following two-line orbital elements,

1 14064U 83044A   15181.85522410  .00000603  00000-0  67908-4 0  9990
2 14064 065.0021 341.6555 0117776 321.4367 037.8375 14.91611651616275
Epoch (UTC): 30 June 2015 20:31:31
Eccentricity: 0.0117776
inclination: 65.0021°
perigee height: 511 km
apogee height: 675 km
right ascension of ascending node: 341.6555°
argument of perigee: 321.4367°
revolutions per day: 14.91611651
mean anomaly at epoch: 37.8375°
orbit number at epoch: 61627

The dashed part of the orbit path shows where the satellite is in the earth's shadow,  

DLR